Location: Dürabuch
(48.2640°N, 11.2185°E)
Time: 19:32:46
(UTC+00:00)

CZ-2D R/B - Pass Details

Date: 24 May 2025
Orbit: 790 x 841 km, 98.8° (Epoch: 16 June)

Event Time Altitude Azimuth Distance (km) Brightness Sun altitude
Rises 00:01:45 0° 32° (NNE) 3,408 6.6 -20.1°
Reaches altitude 10° 00:05:41 10° 60° (ENE) 2,467 5.2 -19.9°
Maximum altitude 00:08:01 13° 86° (E) 2,272 4.6 -19.8°
Drops below altitude 10° 00:10:21 10° 111° (ESE) 2,456 4.5 -19.7°
Enters shadow 00:12:32 - 130° (SE) 2,910 4.8 -19.6°
